DW4326 Weather Reports


Display with metric or nautical units.
time (UTC)temp
F
wind
direction
speed
MPH
gust
MPH
rain 1hr
in
rain 24hr
in
rain mn
in
humidity
%
barometer
mb
20260904121951 55 355 0.0 0.0 0.00 0.00 0.00 99 1011.2
20260904121144 55 355 0.0 0.0 0.00 0.00 0.00 99 1011.2
20260904114953 54 355 0.0 0.0 0.00 0.00 0.00 98 1011.2
20260904113452 54 355 0.0 0.0 0.00 0.00 0.00 98 1011.1
20260904111949 54 355 0.0 0.0 0.00 0.00 0.00 98 1010.9
20260904110448 54 355 0.0 0.0 0.00 0.00 0.00 98 1010.9
20260904104950 54 355 0.0 0.0 0.00 0.00 0.00 98 1010.5
20260904103445 54 355 0.0 0.0 0.00 0.00 0.00 98 1010.6
20260904101946 53 355 0.0 0.0 0.00 0.00 0.00 98 1010.6
20260904100445 53 355 0.0 0.0 0.00 0.00 0.00 98 1010.7
20260904094943 53 355 0.0 0.0 0.00 0.00 0.00 98 1010.4
20260904093445 53 355 0.0 0.0 0.00 0.00 0.00 98 1010.4
20260904091942 53 355 0.0 0.0 0.00 0.00 0.00 97 1010.4
20260904090439 54 355 0.0 0.0 0.00 0.00 0.00 97 1010.4
20260904084937 54 355 0.0 0.0 0.00 0.00 0.00 97 1010.4
20260904083437 54 355 0.0 0.0 0.00 0.00 0.00 97 1010.5
20260904081936 54 355 0.0 0.0 0.00 0.00 0.00 97 1010.4
20260904080438 54 355 0.0 0.0 0.00 0.00 0.00 97 1010.2
20260904074937 54 355 0.0 0.0 0.00 0.00 0.00 97 1010.3
20260904073438 55 355 0.0 0.0 0.00 0.00 0.00 97 1010.2
20260904071935 55 355 0.0 0.0 0.00 0.00 0.00 97 1010.3
20260904070434 55 355 0.0 0.0 0.00 0.00 0.00 97 1010.4
20260904064933 55 355 0.0 0.0 0.00 0.00 0.00 97 1010.4
20260904063433 56 355 0.0 0.0 0.00 0.00 0.00 97 1010.7
20260904061934 56 355 0.0 0.0 0.00 0.00 0.00 97 1010.7
20260904061133 56 355 0.0 0.0 0.00 0.00 0.00 97 1010.9
20260904054928 56 355 0.0 0.0 0.00 0.01 0.00 96 1011.0
20260904053428 57 355 0.0 0.0 0.00 0.07 0.00 97 1011.2
20260904051926 57 355 0.0 0.0 0.00 0.07 0.00 97 1011.3
20260904050427 57 355 0.0 0.0 0.00 0.07 0.00 96 1011.3
20260904045631 58 355 0.0 0.0 0.00 0.07 0.00 96 1011.4
20260904043427 58 355 0.0 0.0 0.00 0.07 0.00 96 1011.4
20260904041927 58 355 0.0 0.0 0.00 0.07 0.00 96 1011.4
20260904040428 59 355 0.0 0.0 0.00 0.07 0.00 96 1011.5
20260904034927 59 355 0.0 0.0 0.00 0.07 0.07 96 1011.4
20260904033427 60 355 0.0 0.0 0.00 0.07 0.07 96 1011.6
20260904032620 60 355 0.0 0.0 0.00 0.07 0.07 96 1011.3
20260904030427 60 355 0.0 0.0 0.00 0.07 0.07 95 1011.7
20260904024927 61 355 0.0 0.0 0.00 0.07 0.07 95 1011.5
20260904023427 61 355 0.0 0.0 0.00 0.07 0.07 95 1011.6
20260904021926 62 355 0.0 0.0 0.00 0.07 0.07 95 1011.5
20260904020428 62 355 0.0 0.0 0.00 0.07 0.07 95 1011.5
20260904014925 62 355 0.0 0.0 0.00 0.07 0.07 95 1011.8
20260904013427 63 355 0.0 0.0 0.00 0.07 0.07 95 1011.6
20260904011925 63 355 0.0 0.0 0.00 0.07 0.07 95 1011.7
20260904010426 64 355 0.0 0.0 0.00 0.07 0.07 95 1011.8
20260904004927 64 355 0.0 0.0 0.00 0.07 0.07 94 1011.5
20260904003425 65 355 0.0 0.0 0.00 0.07 0.07 94 1011.4
20260904001926 66 355 0.0 0.0 0.00 0.07 0.07 93 1010.9
20260904000427 66 355 0.0 0.0 0.00 0.07 0.07 93 1011.0
20260903234927 67 355 0.0 0.0 0.00 0.07 0.07 92 1010.7
20260903233426 68 355 0.0 0.0 0.00 0.07 0.07 92 1010.7
20260903231926 69 355 0.0 0.0 0.00 0.07 0.07 92 1010.4
20260903230426 70 355 0.0 0.0 0.00 0.07 0.07 91 1010.6
20260903224926 71 355 0.0 0.0 0.00 0.07 0.07 90 1010.5
20260903223426 72 355 0.0 0.0 0.00 0.07 0.07 88 1010.6
20260903221924 72 355 0.0 0.0 0.00 0.07 0.07 87 1010.6
20260903220423 73 355 0.0 0.0 0.00 0.07 0.07 87 1010.7
20260903214923 73 15 0.0 1.0 0.00 0.07 0.07 86 1010.9
20260903213423 75 13 0.0 0.0 0.00 0.07 0.07 84 1010.9
20260903212515 76 165 0.0 3.0 0.00 0.07 0.07 82 1010.7
20260903211939 75 13 0.0 5.0 0.00 0.07 0.07 83 1010.8
20260903204923 76 182 0.0 3.0 0.00 0.07 0.07 81 1010.6
20260903204120 75 200 0.0 5.0 0.00 0.07 0.07 82 1010.7
20260903202612 75 196 3.0 9.0 0.00 0.07 0.07 81 1010.6
20260903200417 75 167 0.0 6.0 0.00 0.07 0.07 82 1010.9
20260903194918 76 198 2.0 7.0 0.00 0.07 0.07 81 1010.8
20260903193417 75 200 0.0 9.0 0.00 0.07 0.07 80 1011.1
20260903191917 76 192 4.0 9.0 0.00 0.07 0.07 80 1011.1
20260903190426 75 195 3.0 6.0 0.00 0.07 0.07 82 1011.2
20260903185612 74 209 1.0 4.0 0.00 0.07 0.07 82 1011.4
20260903183416 74 193 0.0 0.0 0.00 0.07 0.07 83 1011.5
20260903181913 74 221 0.0 0.0 0.00 0.07 0.07 82 1011.7
20260903180413 72 196 0.0 0.0 0.00 0.07 0.07 86 1011.9
20260903174912 70 196 0.0 1.0 0.00 0.07 0.07 86 1012.2
20260903174130 69 208 0.0 3.0 0.00 0.07 0.07 88 1012.2
20260903171911 68 186 0.0 2.0 0.00 0.07 0.07 89 1012.4
20260903170408 68 197 0.0 0.0 0.00 0.07 0.07 89 1012.6
20260903164908 67 185 0.0 0.0 0.00 0.07 0.07 90 1012.6
20260903163408 66 202 0.0 0.0 0.00 0.07 0.07 92 1012.8
20260903161907 65 196 0.0 0.0 0.00 0.07 0.07 93 1012.8
20260903160407 65 197 0.0 0.0 0.00 0.07 0.07 92 1013.0
20260903154907 64 200 0.0 0.0 0.00 0.07 0.07 93 1013.1
20260903153407 64 200 0.0 0.0 0.00 0.07 0.07 94 1013.4
20260903151905 63 199 0.0 0.0 0.00 0.07 0.07 95 1013.7
20260903150405 63 199 0.0 2.0 0.00 0.07 0.07 94 1013.5
20260903144904 63 198 0.0 4.0 0.00 0.07 0.07 95 1013.8
20260903143403 62 196 0.0 0.0 0.00 0.07 0.07 97 1014.0
20260903141904 62 196 0.0 0.0 0.00 0.07 0.07 97 1014.0
20260903140408 62 196 0.0 0.0 0.00 0.07 0.07 96 1014.0
20260903134901 62 196 0.0 0.0 0.00 0.07 0.07 96 1014.0
20260903133359 61 196 0.0 0.0 0.00 0.07 0.07 96 1014.0
20260903131858 61 196 0.0 0.0 0.00 0.07 0.07 97 1013.9
20260903130359 61 196 0.0 1.0 0.00 0.07 0.07 96 1013.8
20260903124858 61 196 0.0 1.0 0.00 0.07 0.07 96 1013.9
20260903123358 60 195 0.0 2.0 0.00 0.07 0.07 97 1014.0